Tracking 35334 objects as of 13-Sep-2026
HD Live streaming from Space Station
objects crossing your sky now

STARLINK-3952


STARLINK-3952 is no longer on orbit
STARLINK-3952 is classified as:


NORAD ID: 52534
Int'l Code: 2022-051B
Launch date: May 13, 2022
Source: United States (US)
Launch site: AIR FORCE WESTERN TEST RANGE (AFWTR)
Decay date: 2026-04-17
Your satellite tracking list
Your tracking list is empty




NASA's NSSDC Master Catalog

Two Line Element Set (TLE):
1 52534U 22051B   26107.71711063  .30129544  13032-4  15877-2 0  9992
2 52534  53.2135 287.9592 0055034  24.7213 335.6452 16.33992667218436
Source of the keplerian elements: AFSPC